Weather History for Northeast Philadelphia, PA

Change the Weather History Date:

Sunday, December 9, 2012

  Actual Average Record
Temperature  
Mean Temperature 45 °F -  
Max Temperature 48 °F 45 °F 63 °F (2008)
Min Temperature 42 °F 31 °F 18 °F (2002)
Degree Days  
Heating Degree Days 20    
Moisture  
Dew Point 43 °F    
Average Humidity 93    
Maximum Humidity 100    
Minimum Humidity 82    
Precipitation  
Precipitation 0.28 in - - ()
Sea Level Pressure  
Sea Level Pressure 30.15 in    
Wind  
Wind Speed 5 mph (NE)    
Max Wind Speed 13 mph    
Max Gust Speed -    
Visibility 6 miles    
Events Rain    
Averages and records for this station are not official NWS values.
T = Trace of Precipitation, MM = Missing Value Source: NWS Daily Summary

Daily Weather History Graph

Daily Weather History Graph

Search for Another Location

Airport:

Trip Planner

Search our weather history database for the weather conditions in past years. The results will help you decide how hot, cold, wet, or windy it might be!

Date:

Astronomy

Dec. 09, 2012 Rise Set
Actual Time 7:10 AM EST 4:34 PM EST
Civil Twilight 6:40 AM EST 5:04 PM EST
Nautical Twilight 6:06 AM EST 5:38 PM EST
Astronomical Twilight 5:33 AM EST 6:11 PM EST
Moon 2:40 AM EST (12/9) 1:39 PM EST (12/9)
Length of Visible Light 10h 24m
Length of Day
9h 23m
Waning Crescent, 19% of the Moon is Illuminated
Dec 9
Waning Crescent
Dec 13
New
Dec 20
First Quarter
Dec 28
Full
Jan 4
Last Quarter

Hourly Weather History & Observations

Time (EST) Temp. Windchill Dew Point Humidity Pressure Visibility Wind Dir Wind Speed Gust Speed Precip Events Conditions
12:54 AM 48.0 °F - 46.9 °F 96% 30.05 in 6.0 mi WNW 3.5 mph - N/A   Scattered Clouds
1:54 AM 48.0 °F - 46.0 °F 93% 30.06 in 6.0 mi WNW 3.5 mph - N/A   Overcast
2:23 AM 48.2 °F - 46.4 °F 93% 30.07 in 6.0 mi Calm Calm - N/A   Overcast
2:32 AM 48.2 °F - 46.4 °F 93% 30.07 in 5.0 mi Calm Calm - N/A   Overcast
2:54 AM 48.0 °F - 46.0 °F 93% 30.08 in 4.0 mi Calm Calm - N/A   Overcast
3:10 AM 48.2 °F - 46.4 °F 93% 30.08 in 4.0 mi Calm Calm - N/A   Overcast
3:54 AM 48.0 °F - 46.0 °F 93% 30.09 in 3.0 mi North 4.6 mph - N/A   Overcast
4:02 AM 46.4 °F 43.5 °F 46.4 °F 100% 30.09 in 2.0 mi North 5.8 mph - N/A   Overcast
4:11 AM 46.4 °F 45.2 °F 46.4 °F 100% 30.09 in 1.5 mi North 3.5 mph - N/A   Overcast
4:54 AM 46.9 °F - 45.0 °F 93% 30.11 in 1.2 mi Calm Calm - N/A   Overcast
5:30 AM 46.4 °F 44.3 °F 46.4 °F 100% 30.14 in 2.5 mi NNE 4.6 mph - N/A   Overcast
5:54 AM 46.0 °F 44.8 °F 45.0 °F 96% 30.15 in 2.5 mi NE 3.5 mph - N/A   Scattered Clouds
6:03 AM 46.4 °F 44.3 °F 44.6 °F 93% 30.16 in 3.0 mi NE 4.6 mph - N/A   Partly Cloudy
6:54 AM 46.9 °F - 45.0 °F 93% 30.19 in 5.0 mi NNE 5.8 mph - N/A   Overcast
7:54 AM 46.9 °F - 44.1 °F 90% 30.20 in 7.0 mi NNE 9.2 mph - 0.00 in   Overcast
8:54 AM 46.0 °F 42.5 °F 41.0 °F 83% 30.24 in 9.0 mi NE 6.9 mph - 0.01 in Rain Light Rain
9:54 AM 46.0 °F 41.9 °F 42.1 °F 86% 30.24 in 10.0 mi NE 8.1 mph - 0.02 in Rain Light Rain
10:33 AM 46.4 °F 43.5 °F 42.8 °F 87% 30.25 in 6.0 mi NNE 5.8 mph - 0.04 in Rain Light Rain
10:54 AM 45.0 °F 40.1 °F 42.1 °F 90% 30.24 in 8.0 mi NNE 9.2 mph - 0.06 in Rain Light Rain
11:31 AM 44.6 °F 40.2 °F 42.8 °F 93% 30.22 in 8.0 mi NE 8.1 mph - 0.01 in Rain Light Rain
11:54 AM 45.0 °F 39.7 °F 43.0 °F 93% 30.21 in 6.0 mi NE 10.4 mph - 0.02 in Rain Light Rain
12:13 PM 44.6 °F 40.2 °F 42.8 °F 93% 30.20 in 10.0 mi NE 8.1 mph - 0.01 in Rain Light Rain
12:31 PM 44.6 °F 39.2 °F 42.8 °F 93% 30.19 in 6.0 mi NE 10.4 mph - 0.01 in Rain Light Rain
12:54 PM 46.0 °F 41.4 °F 44.1 °F 93% 30.19 in 7.0 mi NE 9.2 mph - 0.02 in Rain Light Rain
1:54 PM 45.0 °F 38.9 °F 43.0 °F 93% 30.19 in 6.0 mi ENE 12.7 mph - 0.00 in Rain Light Rain
2:10 PM 44.6 °F 38.8 °F 42.8 °F 93% 30.18 in 4.0 mi ENE 11.5 mph - 0.00 in Rain Light Rain
2:36 PM 44.6 °F 40.7 °F 42.8 °F 93% 30.19 in 8.0 mi ENE 6.9 mph - 0.00 in Rain Light Rain
2:54 PM 44.1 °F 38.6 °F 39.0 °F 82% 30.19 in 10.0 mi East 10.4 mph - 0.00 in Rain Light Rain
3:54 PM 43.0 °F 37.2 °F 39.0 °F 86% 30.19 in 10.0 mi East 10.4 mph - 0.01 in Rain Light Rain
4:52 PM 42.8 °F 37.5 °F 39.2 °F 87% 30.19 in 10.0 mi ENE 9.2 mph - 0.00 in   Overcast
4:54 PM 43.0 °F 37.7 °F 39.0 °F 86% 30.19 in 10.0 mi East 9.2 mph - 0.00 in   Overcast
5:30 PM 42.8 °F 38.6 °F 39.2 °F 87% 30.18 in 10.0 mi ENE 6.9 mph - N/A   Overcast
5:54 PM 42.1 °F 37.1 °F 39.9 °F 92% 30.18 in 2.5 mi ENE 8.1 mph - N/A   Overcast
6:54 PM 42.1 °F 37.7 °F 41.0 °F 96% 30.16 in 3.0 mi NE 6.9 mph - 0.01 in Rain Light Rain
7:24 PM 42.8 °F 37.5 °F 41.0 °F 93% 30.15 in 2.5 mi NE 9.2 mph - 0.03 in Rain Rain
7:31 PM 42.8 °F 38.0 °F 41.0 °F 93% 30.15 in 3.0 mi ENE 8.1 mph - 0.04 in Rain Rain
7:54 PM 42.1 °F 36.6 °F 41.0 °F 96% 30.14 in 6.0 mi ENE 9.2 mph - 0.05 in Rain Light Rain
8:54 PM 43.0 °F 39.5 °F 42.1 °F 97% 30.09 in 4.0 mi NE 5.8 mph - 0.00 in   Overcast
9:05 PM 42.8 °F 37.5 °F 42.8 °F 100% 30.08 in 3.0 mi ENE 9.2 mph - N/A   Overcast
9:54 PM 44.1 °F - 43.0 °F 96% 30.08 in 4.0 mi Calm Calm - 0.00 in Rain Light Rain
10:54 PM 44.1 °F 40.8 °F 43.0 °F 96% 30.05 in 8.0 mi North 5.8 mph - 0.05 in Rain Light Rain
11:17 PM 44.6 °F 42.2 °F 42.8 °F 93% 30.03 in 4.0 mi NNE 4.6 mph - 0.01 in Rain Light Rain
11:54 PM 44.1 °F 41.5 °F 43.0 °F 96% 30.02 in 10.0 mi North 4.6 mph - 0.03 in   Overcast